FENGYUN 4A

Last updated on Mon Jun 22 2026 00:02:46 GMT+0000 (Coordinated Universal Time)

1 41882U 16077A 26172.55715684 -.00000359 00000+0 00000+0 0 9999 2 41882 2.3350 80.2401 0008569 153.4835 0.2982 1.00266450 34978
UTC large
Height (km)
Speed (km/s)
/
Latitude / Longitude
Inclination (degrees)
Orbital Period (minutes)
Azimuth
Elevation
Range (km)
Doppler Factor

Next 0 passes for location: London (51.5072 / 0.1276)

No passes found over London.
FENGYUN 4A